This demonstration page uses our WeatherBlox Daily Observations layout. Learn more.

Left ArrowRight Arrow

Hourly Observations for June 27, 2022

Temp ( °F °C ) Dew Point ( °F °C ) Humidity (%) Winds ( mph kmh ) Pressure ( in mb ) Visibility ( mi km ) Precip ( " mm )
12:53 am 00:53 Clear 79 26.1 58 14.4 49 49 ENE 17 28 30.08 1019 10 16 0.00 0.00
1:53 am 01:53 Mostly Cloudy 77 25 58 14.4 52 52 NE 15 24 30.10 1019 10 16 0.00 0.00
2:53 am 02:53 Partly Cloudy 76 24.4 58 14.4 54 54 ENE 9 15 30.12 1020 10 16 0.00 0.00
3:53 am 03:53 Clear 74 23.3 58 14.4 57 57 NE 12 19 30.11 1020 10 16 0.00 0.00
4:53 am 04:53 Clear 73 22.8 59 15 62 62 NNE 13 20 30.12 1020 10 16 0.00 0.00
5:53 am 05:53 Mostly Cloudy 72 22.2 60 15.6 66 66 NNE 14 22 30.12 1020 10 16 0.00 0.00
6:53 am 06:53 Mostly Sunny 70 21.1 58 14.4 66 66 NNE 16 26 30.14 1021 10 16 0.00 0.00
7:53 am 07:53 Cloudy 70 21.1 53 11.7 55 55 NE 14 22 30.16 1022 10 16 0.00 0.00
8:06 am 08:06 Cloudy 70 21.1 53 11.7 55 55 NNE 13 20 30.19 1022 10 16 0.00 0.00
8:53 am 08:53 Cloudy 72 22.2 54 12.2 53 53 NNE 14 22 30.19 1022 10 16 0.00 0.00
9:24 am 09:24 Partly Cloudy 74 23.3 54 12.2 50 50 NE 14 22 30.18 1022 10 16 0.00 0.00
9:53 am 09:53 Partly Cloudy 75 23.9 54 12.2 48 48 NE 14 22 30.19 1022 10 16 0.00 0.00
10:53 am 10:53 Partly Cloudy 77 25 56 13.3 48 48 E 8 13 30.17 1022 10 16 0.00 0.00
11:53 am 11:53 Sunny 78 25.6 59 15 52 52 VRB 5 7 30.15 1021 10 16 0.00 0.00
12:53 pm 12:53 Sunny 82 27.8 58 14.4 44 44 VRB 3 6 30.14 1021 10 16 0.00 0.00
1:53 pm 13:53 Mostly Sunny 85 29.4 58 14.4 40 40 VRB 7 11 30.11 1020 10 16 0.00 0.00
2:53 pm 14:53 Mostly Cloudy 87 30.6 58 14.4 37 37 N 9 15 30.08 1019 10 16 0.00 0.00
3:53 pm 15:53 Mostly Sunny 90 32.2 56 13.3 32 32 VRB 3 6 30.05 1018 10 16 0.00 0.00
4:53 pm 16:53 Mostly Sunny 92 33.3 54 12.2 28 28 E 12 19 30.01 1016 10 16 0.00 0.00
5:53 pm 17:53 Mostly Cloudy 92 33.3 53 11.7 27 27 undefined N/A 29.99 1016 10 16 0.00 0.00
6:53 pm 18:53 Mostly Cloudy 91 32.8 53 11.7 27 27 E 7 11 29.97 1015 10 16 0.00 0.00
7:53 pm 19:53 Sunny 87 30.6 57 13.9 36 36 E 21 33 29.99 1016 10 16 0.00 0.00
8:53 pm 20:53 Sunny 85 29.4 57 13.9 39 39 E 17 28 30.01 1016 10 16 0.00 0.00
9:53 pm 21:53 Clear 83 28.3 57 13.9 41 41 ESE 21 33 30.02 1017 10 16 0.00 0.00
10:53 pm 22:53 Clear 80 26.7 58 14.4 47 47 SE 20 31 30.06 1018 10 16 0.00 0.00
11:53 pm 23:53 Mostly Clear 78 25.6 57 13.9 48 48 ESE 12 19 30.09 1019 10 16 0.00 0.00

Powered by AerisWeather